HVDC transfer

From www.emi.ea.govt.nz provided by the Electricity Authority (New Zealand)
Run at: 20240505234349

Parameters
Date range,16 Sep 2019 - 08 Dec 2019
Time scale,Trading period
Show,Average flow (MW)

Period start,Period end,Trading period,Direction,Energy transfer (GWh),Peak flow (MW),Average flow (MW)
16/09/2019 00:00:00,16/09/2019 00:30:00,1,Southward at Benmore,-0.084,-169,-169
16/09/2019 00:30:00,16/09/2019 01:00:00,2,Southward at Benmore,-0.090,-180,-180
16/09/2019 01:00:00,16/09/2019 01:30:00,3,Southward at Benmore,-0.088,-177,-177
16/09/2019 01:30:00,16/09/2019 02:00:00,4,Southward at Benmore,-0.104,-208,-208
16/09/2019 02:00:00,16/09/2019 02:30:00,5,Southward at Benmore,-0.123,-247,-247
16/09/2019 02:30:00,16/09/2019 03:00:00,6,Southward at Benmore,-0.127,-254,-254
16/09/2019 03:00:00,16/09/2019 03:30:00,7,Southward at Benmore,-0.143,-287,-287
16/09/2019 03:30:00,16/09/2019 04:00:00,8,Southward at Benmore,-0.145,-291,-291
16/09/2019 04:00:00,16/09/2019 04:30:00,9,Southward at Benmore,-0.148,-297,-297
16/09/2019 04:30:00,16/09/2019 05:00:00,10,Southward at Benmore,-0.122,-245,-245
16/09/2019 05:00:00,16/09/2019 05:30:00,11,Southward at Benmore,-0.109,-219,-219
16/09/2019 05:30:00,16/09/2019 06:00:00,12,Southward at Benmore,-0.103,-207,-207
16/09/2019 06:00:00,16/09/2019 06:30:00,13,Southward at Benmore,-0.081,-163,-163
16/09/2019 06:30:00,16/09/2019 07:00:00,14,Northward at Haywards,0.017,33,33
16/09/2019 07:00:00,16/09/2019 07:30:00,15,Northward at Haywards,0.043,86,86
16/09/2019 07:30:00,16/09/2019 08:00:00,16,Northward at Haywards,0.060,120,120
16/09/2019 08:00:00,16/09/2019 08:30:00,17,Northward at Haywards,0.082,164,164
16/09/2019 08:30:00,16/09/2019 09:00:00,18,Northward at Haywards,0.074,147,147
16/09/2019 09:00:00,16/09/2019 09:30:00,19,Northward at Haywards,0.071,141,141
16/09/2019 09:30:00,16/09/2019 10:00:00,20,Northward at Haywards,0.114,227,227
16/09/2019 10:00:00,16/09/2019 10:30:00,21,Northward at Haywards,0.109,217,217
16/09/2019 10:30:00,16/09/2019 11:00:00,22,Northward at Haywards,0.087,173,173
16/09/2019 11:00:00,16/09/2019 11:30:00,23,Northward at Haywards,0.062,123,123
16/09/2019 11:30:00,16/09/2019 12:00:00,24,Northward at Haywards,0.006,11,11
16/09/2019 12:00:00,16/09/2019 12:30:00,25,Southward at Benmore,-0.007,-14,-14
16/09/2019 13:00:00,16/09/2019 13:30:00,27,Southward at Benmore,-0.001,-3,-3
16/09/2019 13:30:00,16/09/2019 14:00:00,28,Northward at Haywards,0.016,31,31
16/09/2019 14:00:00,16/09/2019 14:30:00,29,Southward at Benmore,-0.007,-15,-15
16/09/2019 14:30:00,16/09/2019 15:00:00,30,Southward at Benmore,-0.010,-21,-21
16/09/2019 15:00:00,16/09/2019 15:30:00,31,Northward at Haywards,0.033,66,66
16/09/2019 15:30:00,16/09/2019 16:00:00,32,Southward at Benmore,-0.028,-56,-56
16/09/2019 16:00:00,16/09/2019 16:30:00,33,Southward at Benmore,-0.039,-79,-79
16/09/2019 16:30:00,16/09/2019 17:00:00,34,Northward at Haywards,0.011,21,21
16/09/2019 17:00:00,16/09/2019 17:30:00,35,Northward at Haywards,0.039,77,77
16/09/2019 17:30:00,16/09/2019 18:00:00,36,Northward at Haywards,0.098,196,196
16/09/2019 18:00:00,16/09/2019 18:30:00,37,Northward at Haywards,0.092,184,184
16/09/2019 18:30:00,16/09/2019 19:00:00,38,Northward at Haywards,0.106,212,212
16/09/2019 19:00:00,16/09/2019 19:30:00,39,Northward at Haywards,0.097,193,193
16/09/2019 19:30:00,16/09/2019 20:00:00,40,Northward at Haywards,0.071,142,142
16/09/2019 20:00:00,16/09/2019 20:30:00,41,Northward at Haywards,0.036,71,71
16/09/2019 20:30:00,16/09/2019 21:00:00,42,Northward at Haywards,0.029,57,57
16/09/2019 21:00:00,16/09/2019 21:30:00,43,Northward at Haywards,0.021,42,42
16/09/2019 21:30:00,16/09/2019 22:00:00,44,Northward at Haywards,0.009,18,18
16/09/2019 22:00:00,16/09/2019 22:30:00,45,Northward at Haywards,0.011,21,21
16/09/2019 22:30:00,16/09/2019 23:00:00,46,Southward at Benmore,-0.070,-141,-141
16/09/2019 23:00:00,16/09/2019 23:30:00,47,Southward at Benmore,-0.077,-154,-154
16/09/2019 23:30:00,17/09/2019 00:00:00,48,Southward at Benmore,-0.104,-208,-208
17/09/2019 00:00:00,17/09/2019 00:30:00,1,Southward at Benmore,-0.137,-274,-274
17/09/2019 00:30:00,17/09/2019 01:00:00,2,Southward at Benmore,-0.143,-287,-287
17/09/2019 01:00:00,17/09/2019 01:30:00,3,Southward at Benmore,-0.138,-276,-276
17/09/2019 01:30:00,17/09/2019 02:00:00,4,Southward at Benmore,-0.133,-267,-267
17/09/2019 02:00:00,17/09/2019 02:30:00,5,Southward at Benmore,-0.123,-246,-246
17/09/2019 02:30:00,17/09/2019 03:00:00,6,Southward at Benmore,-0.119,-239,-239
17/09/2019 03:00:00,17/09/2019 03:30:00,7,Southward at Benmore,-0.125,-251,-251
17/09/2019 03:30:00,17/09/2019 04:00:00,8,Southward at Benmore,-0.126,-252,-252
17/09/2019 04:00:00,17/09/2019 04:30:00,9,Southward at Benmore,-0.069,-139,-139
17/09/2019 04:30:00,17/09/2019 05:00:00,10,Southward at Benmore,-0.076,-153,-153
17/09/2019 05:00:00,17/09/2019 05:30:00,11,Southward at Benmore,-0.081,-162,-162
17/09/2019 05:30:00,17/09/2019 06:00:00,12,Southward at Benmore,-0.088,-177,-177
17/09/2019 06:00:00,17/09/2019 06:30:00,13,Southward at Benmore,-0.054,-109,-109
17/09/2019 06:30:00,17/09/2019 07:00:00,14,Northward at Haywards,0.032,63,63
17/09/2019 07:00:00,17/09/2019 07:30:00,15,Northward at Haywards,0.061,122,122
17/09/2019 07:30:00,17/09/2019 08:00:00,16,Northward at Haywards,0.067,134,134
17/09/2019 08:00:00,17/09/2019 08:30:00,17,Northward at Haywards,0.056,112,112
17/09/2019 08:30:00,17/09/2019 09:00:00,18,Northward at Haywards,0.050,99,99
17/09/2019 09:00:00,17/09/2019 09:30:00,19,Northward at Haywards,0.074,147,147
17/09/2019 09:30:00,17/09/2019 10:00:00,20,Northward at Haywards,0.070,139,139
17/09/2019 10:00:00,17/09/2019 10:30:00,21,Northward at Haywards,0.019,37,37
17/09/2019 10:30:00,17/09/2019 11:00:00,22,Northward at Haywards,0.031,61,61
17/09/2019 11:00:00,17/09/2019 11:30:00,23,Southward at Benmore,-0.018,-37,-37
17/09/2019 11:30:00,17/09/2019 12:00:00,24,Southward at Benmore,-0.005,-10,-10
17/09/2019 12:00:00,17/09/2019 12:30:00,25,Southward at Benmore,-0.003,-6,-6
17/09/2019 13:00:00,17/09/2019 13:30:00,27,Southward at Benmore,-0.014,-28,-28
17/09/2019 13:30:00,17/09/2019 14:00:00,28,Southward at Benmore,-0.002,-5,-5
17/09/2019 14:00:00,17/09/2019 14:30:00,29,Southward at Benmore,-0.025,-51,-51
17/09/2019 14:30:00,17/09/2019 15:00:00,30,Southward at Benmore,-0.015,-31,-31
17/09/2019 15:30:00,17/09/2019 16:00:00,32,Northward at Haywards,0.016,32,32
17/09/2019 16:00:00,17/09/2019 16:30:00,33,Northward at Haywards,0.032,63,63
17/09/2019 16:30:00,17/09/2019 17:00:00,34,Northward at Haywards,0.100,200,200
17/09/2019 17:00:00,17/09/2019 17:30:00,35,Northward at Haywards,0.122,244,244
17/09/2019 17:30:00,17/09/2019 18:00:00,36,Northward at Haywards,0.149,297,297
17/09/2019 18:00:00,17/09/2019 18:30:00,37,Northward at Haywards,0.181,362,362
17/09/2019 18:30:00,17/09/2019 19:00:00,38,Northward at Haywards,0.178,355,355
17/09/2019 19:00:00,17/09/2019 19:30:00,39,Northward at Haywards,0.183,366,366
17/09/2019 19:30:00,17/09/2019 20:00:00,40,Northward at Haywards,0.178,355,355
17/09/2019 20:00:00,17/09/2019 20:30:00,41,Northward at Haywards,0.141,282,282
17/09/2019 20:30:00,17/09/2019 21:00:00,42,Northward at Haywards,0.107,213,213
17/09/2019 21:00:00,17/09/2019 21:30:00,43,Northward at Haywards,0.104,208,208
17/09/2019 21:30:00,17/09/2019 22:00:00,44,Northward at Haywards,0.092,183,183
17/09/2019 22:00:00,17/09/2019 22:30:00,45,Northward at Haywards,0.077,153,153
17/09/2019 22:30:00,17/09/2019 23:00:00,46,Northward at Haywards,0.033,66,66
17/09/2019 23:00:00,17/09/2019 23:30:00,47,Southward at Benmore,-0.004,-8,-8
17/09/2019 23:30:00,18/09/2019 00:00:00,48,Southward at Benmore,-0.021,-42,-42
18/09/2019 00:00:00,18/09/2019 00:30:00,1,Southward at Benmore,-0.004,-9,-9
18/09/2019 00:30:00,18/09/2019 01:00:00,2,Southward at Benmore,-0.015,-31,-31
18/09/2019 01:00:00,18/09/2019 01:30:00,3,Southward at Benmore,-0.009,-18,-18
18/09/2019 01:30:00,18/09/2019 02:00:00,4,Northward at Haywards,0.007,14,14
18/09/2019 02:00:00,18/09/2019 02:30:00,5,Southward at Benmore,-0.004,-8,-8
18/09/2019 02:30:00,18/09/2019 03:00:00,6,Southward at Benmore,-0.002,-5,-5
18/09/2019 03:00:00,18/09/2019 03:30:00,7,Southward at Benmore,-0.007,-14,-14
18/09/2019 03:30:00,18/09/2019 04:00:00,8,Southward at Benmore,-0.015,-31,-31
18/09/2019 04:00:00,18/09/2019 04:30:00,9,Northward at Haywards,0.022,44,44
18/09/2019 04:30:00,18/09/2019 05:00:00,10,Northward at Haywards,0.033,66,66
18/09/2019 05:00:00,18/09/2019 05:30:00,11,Northward at Haywards,0.043,85,85
18/09/2019 05:30:00,18/09/2019 06:00:00,12,Northward at Haywards,0.059,118,118
18/09/2019 06:00:00,18/09/2019 06:30:00,13,Northward at Haywards,0.058,115,115
18/09/2019 06:30:00,18/09/2019 07:00:00,14,Northward at Haywards,0.144,287,287
18/09/2019 07:00:00,18/09/2019 07:30:00,15,Northward at Haywards,0.164,328,328
18/09/2019 07:30:00,18/09/2019 08:00:00,16,Northward at Haywards,0.167,334,334
18/09/2019 08:00:00,18/09/2019 08:30:00,17,Northward at Haywards,0.156,312,312
18/09/2019 08:30:00,18/09/2019 09:00:00,18,Northward at Haywards,0.148,295,295
18/09/2019 09:00:00,18/09/2019 09:30:00,19,Northward at Haywards,0.173,345,345
18/09/2019 09:30:00,18/09/2019 10:00:00,20,Northward at Haywards,0.172,343,343
18/09/2019 10:00:00,18/09/2019 10:30:00,21,Northward at Haywards,0.164,327,327
18/09/2019 10:30:00,18/09/2019 11:00:00,22,Northward at Haywards,0.176,352,352
18/09/2019 11:00:00,18/09/2019 11:30:00,23,Northward at Haywards,0.133,265,265
18/09/2019 11:30:00,18/09/2019 12:00:00,24,Northward at Haywards,0.071,142,142
18/09/2019 12:00:00,18/09/2019 12:30:00,25,Northward at Haywards,0.091,181,181
18/09/2019 12:30:00,18/09/2019 13:00:00,26,Northward at Haywards,0.092,184,184
18/09/2019 13:00:00,18/09/2019 13:30:00,27,Northward at Haywards,0.081,161,161
18/09/2019 13:30:00,18/09/2019 14:00:00,28,Northward at Haywards,0.060,119,119
18/09/2019 14:00:00,18/09/2019 14:30:00,29,Northward at Haywards,0.057,113,113
18/09/2019 14:30:00,18/09/2019 15:00:00,30,Northward at Haywards,0.055,110,110
18/09/2019 15:00:00,18/09/2019 15:30:00,31,Northward at Haywards,0.064,127,127
18/09/2019 15:30:00,18/09/2019 16:00:00,32,Northward at Haywards,0.063,125,125
18/09/2019 16:00:00,18/09/2019 16:30:00,33,Northward at Haywards,0.057,114,114
18/09/2019 16:30:00,18/09/2019 17:00:00,34,Northward at Haywards,0.083,166,166
18/09/2019 17:00:00,18/09/2019 17:30:00,35,Northward at Haywards,0.145,289,289
18/09/2019 17:30:00,18/09/2019 18:00:00,36,Northward at Haywards,0.148,296,296
18/09/2019 18:00:00,18/09/2019 18:30:00,37,Northward at Haywards,0.177,353,353
18/09/2019 18:30:00,18/09/2019 19:00:00,38,Northward at Haywards,0.183,365,365
18/09/2019 19:00:00,18/09/2019 19:30:00,39,Northward at Haywards,0.176,351,351
18/09/2019 19:30:00,18/09/2019 20:00:00,40,Northward at Haywards,0.171,341,341
18/09/2019 20:00:00,18/09/2019 20:30:00,41,Northward at Haywards,0.146,292,292
18/09/2019 20:30:00,18/09/2019 21:00:00,42,Northward at Haywards,0.128,256,256
18/09/2019 21:00:00,18/09/2019 21:30:00,43,Northward at Haywards,0.115,230,230
18/09/2019 21:30:00,18/09/2019 22:00:00,44,Northward at Haywards,0.115,230,230
18/09/2019 22:00:00,18/09/2019 22:30:00,45,Northward at Haywards,0.068,135,135
18/09/2019 22:30:00,18/09/2019 23:00:00,46,Northward at Haywards,0.055,109,109
18/09/2019 23:00:00,18/09/2019 23:30:00,47,Northward at Haywards,0.009,18,18
18/09/2019 23:30:00,19/09/2019 00:00:00,48,Northward at Haywards,0.001,2,2
19/09/2019 00:00:00,19/09/2019 00:30:00,1,Southward at Benmore,-0.020,-40,-40
19/09/2019 00:30:00,19/09/2019 01:00:00,2,Southward at Benmore,-0.023,-46,-46
19/09/2019 01:00:00,19/09/2019 01:30:00,3,Southward at Benmore,-0.040,-80,-80
19/09/2019 01:30:00,19/09/2019 02:00:00,4,Southward at Benmore,-0.039,-78,-78
19/09/2019 02:00:00,19/09/2019 02:30:00,5,Southward at Benmore,-0.034,-68,-68
19/09/2019 02:30:00,19/09/2019 03:00:00,6,Southward at Benmore,-0.035,-71,-71
19/09/2019 03:00:00,19/09/2019 03:30:00,7,Southward at Benmore,-0.040,-80,-80
19/09/2019 03:30:00,19/09/2019 04:00:00,8,Southward at Benmore,-0.038,-77,-77
19/09/2019 04:00:00,19/09/2019 04:30:00,9,Northward at Haywards,0.014,27,27
19/09/2019 04:30:00,19/09/2019 05:00:00,10,Northward at Haywards,0.031,61,61
19/09/2019 05:00:00,19/09/2019 05:30:00,11,Northward at Haywards,0.026,51,51
19/09/2019 05:30:00,19/09/2019 06:00:00,12,Northward at Haywards,0.030,59,59
19/09/2019 06:00:00,19/09/2019 06:30:00,13,Northward at Haywards,0.063,125,125
19/09/2019 06:30:00,19/09/2019 07:00:00,14,Northward at Haywards,0.122,244,244
19/09/2019 07:00:00,19/09/2019 07:30:00,15,Northward at Haywards,0.167,334,334
19/09/2019 07:30:00,19/09/2019 08:00:00,16,Northward at Haywards,0.191,381,381
19/09/2019 08:00:00,19/09/2019 08:30:00,17,Northward at Haywards,0.190,379,379
19/09/2019 08:30:00,19/09/2019 09:00:00,18,Northward at Haywards,0.213,426,426
19/09/2019 09:00:00,19/09/2019 09:30:00,19,Northward at Haywards,0.195,389,389
19/09/2019 09:30:00,19/09/2019 10:00:00,20,Northward at Haywards,0.155,310,310
19/09/2019 10:00:00,19/09/2019 10:30:00,21,Northward at Haywards,0.164,328,328
19/09/2019 10:30:00,19/09/2019 11:00:00,22,Northward at Haywards,0.169,337,337
19/09/2019 11:00:00,19/09/2019 11:30:00,23,Northward at Haywards,0.128,255,255
19/09/2019 11:30:00,19/09/2019 12:00:00,24,Northward at Haywards,0.134,267,267
19/09/2019 12:00:00,19/09/2019 12:30:00,25,Northward at Haywards,0.110,219,219
19/09/2019 12:30:00,19/09/2019 13:00:00,26,Northward at Haywards,0.089,178,178
19/09/2019 13:00:00,19/09/2019 13:30:00,27,Northward at Haywards,0.093,185,185
19/09/2019 13:30:00,19/09/2019 14:00:00,28,Northward at Haywards,0.099,198,198
19/09/2019 14:00:00,19/09/2019 14:30:00,29,Northward at Haywards,0.100,200,200
19/09/2019 14:30:00,19/09/2019 15:00:00,30,Northward at Haywards,0.106,212,212
19/09/2019 15:00:00,19/09/2019 15:30:00,31,Northward at Haywards,0.106,212,212
19/09/2019 15:30:00,19/09/2019 16:00:00,32,Northward at Haywards,0.115,229,229
19/09/2019 16:00:00,19/09/2019 16:30:00,33,Northward at Haywards,0.133,266,266
19/09/2019 16:30:00,19/09/2019 17:00:00,34,Northward at Haywards,0.193,386,386
19/09/2019 17:00:00,19/09/2019 17:30:00,35,Northward at Haywards,0.197,394,394
19/09/2019 17:30:00,19/09/2019 18:00:00,36,Northward at Haywards,0.211,422,422
19/09/2019 18:00:00,19/09/2019 18:30:00,37,Northward at Haywards,0.211,421,421
19/09/2019 18:30:00,19/09/2019 19:00:00,38,Northward at Haywards,0.233,465,465
19/09/2019 19:00:00,19/09/2019 19:30:00,39,Northward at Haywards,0.221,441,441
19/09/2019 19:30:00,19/09/2019 20:00:00,40,Northward at Haywards,0.208,416,416
19/09/2019 20:00:00,19/09/2019 20:30:00,41,Northward at Haywards,0.184,367,367
19/09/2019 20:30:00,19/09/2019 21:00:00,42,Northward at Haywards,0.194,388,388
19/09/2019 21:00:00,19/09/2019 21:30:00,43,Northward at Haywards,0.164,328,328
19/09/2019 21:30:00,19/09/2019 22:00:00,44,Northward at Haywards,0.146,291,291
19/09/2019 22:00:00,19/09/2019 22:30:00,45,Northward at Haywards,0.107,213,213
19/09/2019 22:30:00,19/09/2019 23:00:00,46,Northward at Haywards,0.078,156,156
19/09/2019 23:00:00,19/09/2019 23:30:00,47,Northward at Haywards,0.024,48,48
19/09/2019 23:30:00,20/09/2019 00:00:00,48,Northward at Haywards,0.014,27,27
20/09/2019 00:00:00,20/09/2019 00:30:00,1,Southward at Benmore,-0.015,-30,-30
20/09/2019 00:30:00,20/09/2019 01:00:00,2,Southward at Benmore,-0.024,-48,-48
20/09/2019 01:00:00,20/09/2019 01:30:00,3,Southward at Benmore,-0.021,-42,-42
20/09/2019 01:30:00,20/09/2019 02:00:00,4,Southward at Benmore,-0.004,-9,-9
20/09/2019 02:00:00,20/09/2019 02:30:00,5,Southward at Benmore,-0.008,-17,-17
20/09/2019 02:30:00,20/09/2019 03:00:00,6,Southward at Benmore,-0.009,-18,-18
20/09/2019 03:00:00,20/09/2019 03:30:00,7,Southward at Benmore,-0.002,-5,-5
20/09/2019 03:30:00,20/09/2019 04:00:00,8,Southward at Benmore,-0.007,-14,-14
20/09/2019 04:00:00,20/09/2019 04:30:00,9,Northward at Haywards,0.039,77,77
20/09/2019 04:30:00,20/09/2019 05:00:00,10,Northward at Haywards,0.038,76,76
20/09/2019 05:00:00,20/09/2019 05:30:00,11,Northward at Haywards,0.054,107,107
20/09/2019 05:30:00,20/09/2019 06:00:00,12,Northward at Haywards,0.048,95,95
20/09/2019 06:00:00,20/09/2019 06:30:00,13,Northward at Haywards,0.057,113,113
20/09/2019 06:30:00,20/09/2019 07:00:00,14,Northward at Haywards,0.146,292,292
20/09/2019 07:00:00,20/09/2019 07:30:00,15,Northward at Haywards,0.153,306,306
20/09/2019 07:30:00,20/09/2019 08:00:00,16,Northward at Haywards,0.139,277,277
20/09/2019 08:00:00,20/09/2019 08:30:00,17,Northward at Haywards,0.138,275,275
20/09/2019 08:30:00,20/09/2019 09:00:00,18,Northward at Haywards,0.144,288,288
20/09/2019 09:00:00,20/09/2019 09:30:00,19,Northward at Haywards,0.156,312,312
20/09/2019 09:30:00,20/09/2019 10:00:00,20,Northward at Haywards,0.167,334,334
20/09/2019 10:00:00,20/09/2019 10:30:00,21,Northward at Haywards,0.148,296,296
20/09/2019 10:30:00,20/09/2019 11:00:00,22,Northward at Haywards,0.156,312,312
20/09/2019 11:00:00,20/09/2019 11:30:00,23,Northward at Haywards,0.114,228,228
20/09/2019 11:30:00,20/09/2019 12:00:00,24,Northward at Haywards,0.106,211,211
20/09/2019 12:00:00,20/09/2019 12:30:00,25,Northward at Haywards,0.106,212,212
20/09/2019 12:30:00,20/09/2019 13:00:00,26,Northward at Haywards,0.045,90,90
20/09/2019 13:00:00,20/09/2019 13:30:00,27,Northward at Haywards,0.056,112,112
20/09/2019 13:30:00,20/09/2019 14:00:00,28,Northward at Haywards,0.048,96,96
20/09/2019 14:00:00,20/09/2019 14:30:00,29,Northward at Haywards,0.031,62,62
20/09/2019 14:30:00,20/09/2019 15:00:00,30,Northward at Haywards,0.038,75,75
20/09/2019 15:00:00,20/09/2019 15:30:00,31,Northward at Haywards,0.029,57,57
20/09/2019 15:30:00,20/09/2019 16:00:00,32,Northward at Haywards,0.037,73,73
20/09/2019 16:00:00,20/09/2019 16:30:00,33,Northward at Haywards,0.080,159,159
20/09/2019 16:30:00,20/09/2019 17:00:00,34,Northward at Haywards,0.113,226,226
20/09/2019 17:00:00,20/09/2019 17:30:00,35,Northward at Haywards,0.124,248,248
20/09/2019 17:30:00,20/09/2019 18:00:00,36,Northward at Haywards,0.126,251,251
20/09/2019 18:00:00,20/09/2019 18:30:00,37,Northward at Haywards,0.143,285,285
20/09/2019 18:30:00,20/09/2019 19:00:00,38,Northward at Haywards,0.155,309,309
20/09/2019 19:00:00,20/09/2019 19:30:00,39,Northward at Haywards,0.157,313,313
20/09/2019 19:30:00,20/09/2019 20:00:00,40,Northward at Haywards,0.130,260,260
20/09/2019 20:00:00,20/09/2019 20:30:00,41,Northward at Haywards,0.133,265,265
20/09/2019 20:30:00,20/09/2019 21:00:00,42,Northward at Haywards,0.120,239,239
20/09/2019 21:00:00,20/09/2019 21:30:00,43,Northward at Haywards,0.102,203,203
20/09/2019 21:30:00,20/09/2019 22:00:00,44,Northward at Haywards,0.087,173,173
20/09/2019 22:00:00,20/09/2019 22:30:00,45,Northward at Haywards,0.066,132,132
20/09/2019 22:30:00,20/09/2019 23:00:00,46,Northward at Haywards,0.051,101,101
20/09/2019 23:00:00,20/09/2019 23:30:00,47,Northward at Haywards,0.050,100,100
20/09/2019 23:30:00,21/09/2019 00:00:00,48,Northward at Haywards,0.027,53,53
21/09/2019 00:00:00,21/09/2019 00:30:00,1,Northward at Haywards,0.021,41,41
21/09/2019 00:30:00,21/09/2019 01:00:00,2,Northward at Haywards,0.010,20,20
21/09/2019 01:00:00,21/09/2019 01:30:00,3,Southward at Benmore,-0.007,-15,-15
21/09/2019 01:30:00,21/09/2019 02:00:00,4,Southward at Benmore,-0.010,-21,-21
21/09/2019 02:00:00,21/09/2019 02:30:00,5,Southward at Benmore,-0.021,-42,-42
21/09/2019 02:30:00,21/09/2019 03:00:00,6,Southward at Benmore,-0.009,-19,-19
21/09/2019 03:00:00,21/09/2019 03:30:00,7,Southward at Benmore,-0.004,-9,-9
21/09/2019 03:30:00,21/09/2019 04:00:00,8,Southward at Benmore,-0.006,-12,-12
21/09/2019 04:00:00,21/09/2019 04:30:00,9,Northward at Haywards,0.047,94,94
21/09/2019 04:30:00,21/09/2019 05:00:00,10,Northward at Haywards,0.044,88,88
21/09/2019 05:00:00,21/09/2019 05:30:00,11,Northward at Haywards,0.040,79,79
21/09/2019 05:30:00,21/09/2019 06:00:00,12,Northward at Haywards,0.055,110,110
21/09/2019 06:00:00,21/09/2019 06:30:00,13,Northward at Haywards,0.062,123,123
21/09/2019 06:30:00,21/09/2019 07:00:00,14,Northward at Haywards,0.064,128,128
21/09/2019 07:00:00,21/09/2019 07:30:00,15,Northward at Haywards,0.114,228,228
21/09/2019 07:30:00,21/09/2019 08:00:00,16,Northward at Haywards,0.148,296,296
21/09/2019 08:00:00,21/09/2019 08:30:00,17,Northward at Haywards,0.167,333,333
21/09/2019 08:30:00,21/09/2019 09:00:00,18,Northward at Haywards,0.180,360,360
21/09/2019 09:00:00,21/09/2019 09:30:00,19,Northward at Haywards,0.199,397,397
21/09/2019 09:30:00,21/09/2019 10:00:00,20,Northward at Haywards,0.191,381,381
21/09/2019 10:00:00,21/09/2019 10:30:00,21,Northward at Haywards,0.175,350,350
21/09/2019 10:30:00,21/09/2019 11:00:00,22,Northward at Haywards,0.169,338,338
21/09/2019 11:00:00,21/09/2019 11:30:00,23,Northward at Haywards,0.171,341,341
21/09/2019 11:30:00,21/09/2019 12:00:00,24,Northward at Haywards,0.137,273,273
21/09/2019 12:00:00,21/09/2019 12:30:00,25,Northward at Haywards,0.106,212,212
21/09/2019 12:30:00,21/09/2019 13:00:00,26,Northward at Haywards,0.101,202,202
21/09/2019 13:00:00,21/09/2019 13:30:00,27,Northward at Haywards,0.086,172,172
21/09/2019 13:30:00,21/09/2019 14:00:00,28,Northward at Haywards,0.082,163,163
21/09/2019 14:00:00,21/09/2019 14:30:00,29,Northward at Haywards,0.071,141,141
21/09/2019 14:30:00,21/09/2019 15:00:00,30,Northward at Haywards,0.064,128,128
21/09/2019 15:00:00,21/09/2019 15:30:00,31,Northward at Haywards,0.063,126,126
21/09/2019 15:30:00,21/09/2019 16:00:00,32,Northward at Haywards,0.068,135,135
21/09/2019 16:00:00,21/09/2019 16:30:00,33,Northward at Haywards,0.063,125,125
21/09/2019 16:30:00,21/09/2019 17:00:00,34,Northward at Haywards,0.092,184,184
21/09/2019 17:00:00,21/09/2019 17:30:00,35,Northward at Haywards,0.133,265,265
21/09/2019 17:30:00,21/09/2019 18:00:00,36,Northward at Haywards,0.156,311,311
21/09/2019 18:00:00,21/09/2019 18:30:00,37,Northward at Haywards,0.184,367,367
21/09/2019 18:30:00,21/09/2019 19:00:00,38,Northward at Haywards,0.166,332,332
21/09/2019 19:00:00,21/09/2019 19:30:00,39,Northward at Haywards,0.171,342,342
21/09/2019 19:30:00,21/09/2019 20:00:00,40,Northward at Haywards,0.197,394,394
21/09/2019 20:00:00,21/09/2019 20:30:00,41,Northward at Haywards,0.209,418,418
21/09/2019 20:30:00,21/09/2019 21:00:00,42,Northward at Haywards,0.207,413,413
21/09/2019 21:00:00,21/09/2019 21:30:00,43,Northward at Haywards,0.164,327,327
21/09/2019 21:30:00,21/09/2019 22:00:00,44,Northward at Haywards,0.155,309,309
21/09/2019 22:00:00,21/09/2019 22:30:00,45,Northward at Haywards,0.132,263,263
21/09/2019 22:30:00,21/09/2019 23:00:00,46,Northward at Haywards,0.127,254,254
21/09/2019 23:00:00,21/09/2019 23:30:00,47,Northward at Haywards,0.131,261,261
21/09/2019 23:30:00,22/09/2019 00:00:00,48,Northward at Haywards,0.128,255,255
22/09/2019 00:00:00,22/09/2019 00:30:00,1,Northward at Haywards,0.123,246,246
22/09/2019 00:30:00,22/09/2019 01:00:00,2,Northward at Haywards,0.097,194,194
22/09/2019 01:00:00,22/09/2019 01:30:00,3,Northward at Haywards,0.055,109,109
22/09/2019 01:30:00,22/09/2019 02:00:00,4,Northward at Haywards,0.056,112,112
22/09/2019 02:00:00,22/09/2019 02:30:00,5,Northward at Haywards,0.051,101,101
22/09/2019 02:30:00,22/09/2019 03:00:00,6,Northward at Haywards,0.054,108,108
22/09/2019 03:00:00,22/09/2019 03:30:00,7,Northward at Haywards,0.054,107,107
22/09/2019 03:30:00,22/09/2019 04:00:00,8,Northward at Haywards,0.049,97,97
22/09/2019 04:00:00,22/09/2019 04:30:00,9,Northward at Haywards,0.084,167,167
22/09/2019 04:30:00,22/09/2019 05:00:00,10,Northward at Haywards,0.076,152,152
22/09/2019 05:00:00,22/09/2019 05:30:00,11,Northward at Haywards,0.074,147,147
22/09/2019 05:30:00,22/09/2019 06:00:00,12,Northward at Haywards,0.086,172,172